Погода в Норидже

Великобритания     52°37′20″N   1°17′41″E
темп.,
°C
ветер,
м/с
пор.,
м/с
влажн.,
%
обл.,
%
осадки,
мм/ч
давл.,
гПа
погр.,
м
25 мая, ср
ср2501:00+8зюз35925 0.4 101086
04:00+7юз489499 0.0 1010147
07:00+9юз5129175 0.0 1011413
10:00+14юз8116863 0.0 10111145
13:00+12юз91582100 0.1 1011902
16:00+14юз81383100 0.1 10111044
19:00+15зюз61184100 0.5 1012813
22:00+12зюз4119194 0.1 1015274
26 мая, чт
чт2601:00+10зюз4119559 0.1 1017242
04:00+9зюз411965 0.0 1018243
07:00+11зюз598851 0.0 1019335
10:00+15зюз71170100 0.0 1019915
13:00+17зюз8127699 0.0 10181157
16:00+18з81376100 0.3 10171455
19:00+16з71385100 0.6 1018925
22:00+14зсз6129046 0.4 1020755
27 мая, пт
пт2701:00+9з5129017 0.4 1021352
04:00+8зсз614879 0.0 1022479
07:00+8зсз6138441 0.0 1024571
10:00+13зсз8106437 0.0 10241037
13:00+16зсз8105511 0.0 10241716
16:00+16зсз912528 0.0 10241961
19:00+14сз7116437 0.0 10251370
22:00+11зсз5127090 0.0 1026538
28 мая, сб
сб2801:00+9зсз51276100 0.0 1026394
04:00+7зсз498969 0.0 1027202
07:00+10сз47835 0.0 1028310
10:00+14ссз566439 0.0 10281391
13:00+16ссз675513 0.1 10281543
16:00+14с68564 0.0 10281273
19:00+12с586741 0.0 1028806
22:00+8ссз2288100 0.0 102827
29 мая, вс
вс2901:00+6сз339397 0.0 102851
04:00+7сз3594100 0.0 1027105
07:00+10ссз3782100 0.0 1027479
10:00+12ссз5773100 0.0 1027768
13:00+15с6766100 0.0 10261329
16:00+15с686579 0.0 10261226
19:00+13с467595 0.0 1026640
22:00+10ссз238798 0.0 102672